{"data":{"norad_id":64220,"intl_designator":"2025-117T","name":"STARLINK-34328","alt_names":[],"object_type":"PAYLOAD","status":"ACTIVE","operator":null,"country":"US","launch_date":"2025-05-31","launch_site_code":"AFWTR","launch_vehicle":null,"mission":null,"orbit_class":"UNKNOWN","rcs_meters":null,"size_class":null,"mass_kg":null,"dimensions":null,"purposes":["comms"],"wikipedia_slug":null,"has_3d_model":false,"image_url":null,"decayed_at":null,"tle_current":{"epoch":"2026-05-25T02:14:08.314656Z","epoch_age_seconds":60859,"freshness":"FRESH","line1":"1 64220U 25117T   26145.09315179  .00014225  00000+0  49143-3 0  9990","line2":"2 64220  53.1590  44.6969 0000873 102.3204 257.7894 15.30203970 56224","mean_motion":15.3020397,"eccentricity":8.73e-5,"inclination_deg":53.159,"raan_deg":44.6969,"arg_perigee_deg":102.3204,"mean_anomaly_deg":257.7894,"bstar":0.00049143,"rev_number":5622,"period_min":94.105101557147,"perigee_km":474.60491913972,"apogee_km":475.80151234138,"semimajor_km":6853.3402157405,"source":"CELESTRAK","updated_at":"2026-05-25T13:38:20.320779Z"}}}